Date String (YYYY-MM-DD hh:mm:ss) UTC,Instrument flags,absolute air pressure of the measurement (hPa),sample flow rate (lpm),inlet stack bypass flow (lpm),air temperature of the measurement (°C),ambient temperature measured by the external sensor (°C),aerosol sample conditioner tube jacket temperature (°C),OPC LED temperature (°C),internal box temperature (°C),relative humidity of the measurement (%),span deviation,mass concentration of particles derived from Lorenz-Mie calculation of OPC scattering (μg/m³),mass concentration of particles derived from Lorenz-Mie calculation of OPC scattering (μg/m³),mass concentration of particles derived from Lorenz-Mie calculation of OPC scattering (μg/m³)
DateTimeUTC,F1_M11,P_M11,Q1_M11,Q2_M11,T1_M11,T2_M11,T3_M11,T4_M11,T5_M11,U1_M11,ZSPAN_M11,X0_M11,X2_M11,X1_M11
2024-06-10 15:00:00,SystemResetWarning,0829.6,4.99,000.00,030.5,029.9,000.0,038.8,032.3,035.3,-000.6,0017.51,0012.27,0011.47
2024-06-10 15:01:00,SystemResetWarning,0829.6,5.00,000.00,030.6,030.0,000.0,038.8,032.3,035.4,-000.7,0017.20,0012.25,0011.47
2024-06-10 15:02:00,SystemResetWarning,0829.7,5.00,000.00,030.6,030.0,000.0,038.9,032.3,035.0,-000.4,0017.15,0012.30,0011.48
2024-06-10 15:03:00,SystemResetWarning,0829.7,5.01,000.00,030.6,030.0,000.0,038.9,032.4,035.4,-000.2,0016.81,0012.30,0011.47
2024-06-10 15:04:00,SystemResetWarning,0829.7,5.00,000.00,030.7,030.1,000.0,038.9,032.4,035.0,-000.1,0016.76,0012.31,0011.44
2024-06-10 15:05:00,SystemResetWarning,0829.7,5.01,000.00,030.7,030.1,000.0,038.9,032.4,035.1,-000.2,0016.34,0012.28,0011.41
2024-06-10 15:06:00,SystemResetWarning,0829.7,5.00,000.00,030.7,030.1,000.0,039.0,032.4,034.8,0000.3,0016.12,0012.24,0011.40
2024-06-10 15:07:00,SystemResetWarning,0829.7,4.99,000.00,030.7,030.2,000.0,039.0,032.5,034.7,0000.3,0016.09,0012.19,0011.39
2024-06-10 15:08:00,SystemResetWarning,0829.7,4.99,000.00,030.8,029.9,000.0,039.0,032.3,035.7,0000.6,0016.29,0012.22,0011.40
2024-06-10 15:09:00,SystemResetWarning,0829.6,5.00,000.00,030.5,028.0,000.0,039.1,031.4,035.5,0000.9,0016.53,0012.24,0011.40
2024-06-10 15:10:00,SystemResetWarning,0829.6,5.02,000.00,030.1,026.7,000.0,039.1,030.7,036.3,0000.7,0016.32,0012.29,0011.42
2024-06-10 15:11:00,SystemResetWarning,0829.6,5.00,000.00,029.9,026.8,000.0,039.0,030.7,036.9,0000.3,0016.61,0012.32,0011.45
2024-06-10 15:12:00,SystemResetWarning,0829.6,5.00,000.00,029.8,027.2,000.0,038.8,030.9,037.4,0000.6,0016.77,0012.37,0011.50
2024-06-10 15:13:00,SystemResetWarning,0829.7,5.00,000.00,029.8,027.6,000.0,038.7,031.1,037.8,0000.6,0017.24,0012.35,0011.52
2024-06-10 15:14:00,SystemResetWarning,0829.7,4.99,000.00,029.8,028.0,000.0,038.6,031.3,037.9,0000.3,0017.61,0012.40,0011.57
2024-06-10 15:15:00,SystemResetWarning,0829.7,4.99,000.00,029.8,028.3,000.0,038.6,031.4,038.7,0000.4,0018.21,0012.47,0011.63
2024-06-10 15:16:00,SystemResetWarning,0829.7,5.00,000.00,029.9,028.6,000.0,038.5,031.5,037.8,0000.4,0018.19,0012.51,0011.66
2024-06-10 15:17:00,SystemResetWarning,0829.7,5.00,000.00,029.9,028.8,000.0,038.5,031.6,037.1,0000.3,0018.21,0012.58,0011.73
2024-06-10 15:18:00,SystemResetWarning,0829.7,5.00,000.00,030.0,029.0,000.0,038.5,031.7,036.8,-000.2,0018.62,0012.68,0011.82
2024-06-10 15:19:00,SystemResetWarning,0829.7,5.00,000.00,030.0,029.1,000.0,038.5,031.8,036.9,-000.5,0019.39,0012.77,0011.94
2024-06-10 15:20:00,SystemResetWarning,0829.7,4.99,000.00,030.1,029.3,000.0,038.5,031.8,037.2,-000.3,0019.37,0012.81,0012.01
2024-06-10 15:21:00,SystemResetWarning,0829.7,5.00,000.00,030.1,029.4,000.0,038.5,031.9,037.1,-000.2,0019.04,0012.78,0012.02
2024-06-10 15:22:00,SystemResetWarning,0829.7,5.00,000.00,030.1,029.5,000.0,038.5,032.0,037.0,0000.3,0018.63,0012.77,0012.04
2024-06-10 15:23:00,SystemResetWarning,0829.7,5.00,000.00,030.2,029.6,000.0,038.5,032.0,036.4,0000.3,0018.48,0012.74,0012.05
2024-06-10 15:24:00,SystemResetWarning,0829.7,5.00,000.00,030.2,029.6,000.0,038.6,032.1,036.3,0000.2,0017.98,0012.76,0012.09
2024-06-10 15:25:00,SystemResetWarning,0829.7,5.01,000.00,030.3,029.7,000.0,038.6,032.1,036.1,0000.3,0017.71,0012.74,0012.13
2024-06-10 15:26:00,SystemResetWarning,0829.7,5.00,000.00,030.3,029.8,000.0,038.6,032.1,036.6,-000.2,0017.33,0012.75,0012.18
2024-06-10 15:27:00,SystemResetWarning,0829.7,4.99,000.00,030.4,029.8,000.0,038.6,032.2,036.5,-000.6,0016.97,0012.77,0012.24
2024-06-10 15:28:00,SystemResetWarning,0829.8,4.99,000.00,030.4,029.9,000.0,038.7,032.2,035.9,-000.9,0017.22,0012.81,0012.25
2024-06-10 15:29:00,SystemResetWarning,0829.8,5.00,000.00,030.5,029.9,000.0,038.7,032.3,036.2,-000.9,0017.15,0012.78,0012.20
2024-06-10 15:30:00,SystemResetWarning,0829.8,5.01,000.00,030.5,030.0,000.0,038.7,032.3,036.6,-000.3,0016.52,0012.75,0012.14
2024-06-10 15:31:00,SystemResetWarning,0829.8,5.01,000.00,030.5,030.0,000.0,038.8,032.3,035.5,-000.5,0016.28,0012.74,0012.11
2024-06-10 15:32:00,SystemResetWarning,0829.8,4.98,000.00,030.4,028.8,000.0,038.8,031.7,035.5,-000.5,0016.24,0012.78,0012.15
2024-06-10 15:33:00,SystemResetWarning,0829.7,5.03,000.00,030.0,026.9,000.0,038.8,030.8,037.4,-000.7,0016.45,0012.88,0012.19
2024-06-10 15:34:00,SystemResetWarning,0829.7,5.01,000.00,029.8,026.5,000.0,038.8,030.5,038.6,-000.9,0016.74,0012.93,0012.23
2024-06-10 15:35:00,SystemResetWarning,0829.7,5.00,000.00,029.6,026.8,000.0,038.7,030.6,038.2,-000.7,0016.75,0013.00,0012.27
2024-06-10 15:36:00,SystemResetWarning,0829.8,5.00,000.00,029.6,027.3,000.0,038.5,030.9,038.4,-000.8,0016.86,0013.09,0012.31
2024-06-10 15:37:00,SystemResetWarning,0829.7,5.00,000.00,029.6,027.7,000.0,038.4,031.1,038.7,-000.7,0017.65,0013.19,0012.35
2024-06-10 15:38:00,SystemResetWarning,0829.8,5.00,000.00,029.7,028.0,000.0,038.4,031.2,037.9,-000.4,0018.37,0013.32,0012.38
2024-06-10 15:39:00,SystemResetWarning,0829.8,5.00,000.00,029.7,028.3,000.0,038.3,031.3,037.8,0000.1,0018.24,0013.35,0012.42
2024-06-10 15:40:00,SystemResetWarning,0829.8,4.99,000.00,029.7,028.6,000.0,038.3,031.4,037.6,0000.4,0018.02,0013.44,0012.53
2024-06-10 15:41:00,SystemResetWarning,0829.8,4.99,000.00,029.8,028.8,000.0,038.3,031.5,037.6,0000.2,0018.14,0013.48,0012.59
2024-06-10 15:42:00,SystemResetWarning,0829.8,5.00,000.00,029.8,028.9,000.0,038.3,031.6,037.1,0000.2,0018.12,0013.51,0012.64
2024-06-10 15:43:00,SystemResetWarning,0829.8,5.00,000.00,029.9,029.1,000.0,038.3,031.7,035.4,-000.2,0018.08,0013.49,0012.61
2024-06-10 15:44:00,SystemResetWarning,0829.8,5.00,000.00,029.9,029.2,000.0,038.3,031.8,035.0,-000.2,0017.85,0013.31,0012.47
2024-06-10 15:45:00,SystemResetWarning,0829.8,5.00,000.00,030.0,029.3,000.0,038.3,031.8,035.1,-000.2,0017.53,0013.14,0012.31
2024-06-10 15:46:00,SystemResetWarning,0829.8,5.00,000.00,030.0,029.4,000.0,038.4,031.8,035.4,-000.2,0017.44,0012.99,0012.16
2024-06-10 15:47:00,SystemResetWarning,0829.8,5.00,000.00,030.1,029.5,000.0,038.4,031.9,035.6,-000.3,0017.19,0012.84,0012.04
2024-06-10 15:48:00,SystemResetWarning,0829.8,4.99,000.00,030.1,029.6,000.0,038.4,031.9,035.5,-000.2,0016.48,0012.73,0011.93
2024-06-10 15:49:00,SystemResetWarning,0829.8,4.99,000.00,030.2,029.6,000.0,038.4,032.0,035.1,-000.2,0015.98,0012.51,0011.79
2024-06-10 15:50:00,SystemResetWarning,0829.8,5.00,000.00,030.2,029.7,000.0,038.4,032.0,035.5,-000.3,0016.16,0012.41,0011.67
2024-06-10 15:51:00,SystemResetWarning,0829.8,5.01,000.00,030.3,029.8,000.0,038.5,032.1,035.9,-000.6,0017.09,0012.25,0011.52
2024-06-10 15:52:00,SystemResetWarning,0829.8,5.01,000.00,030.3,029.8,000.0,038.5,032.1,035.3,-000.7,0017.84,0012.09,0011.35
2024-06-10 15:53:00,SystemResetWarning,0829.8,5.00,000.00,030.4,029.9,000.0,038.5,032.2,034.3,-000.7,0018.40,0011.96,0011.20
2024-06-10 15:54:00,SystemResetWarning,0829.8,5.00,000.00,030.4,029.9,000.0,038.6,032.2,034.4,-000.4,0018.48,0011.83,0011.05
2024-06-10 15:55:00,SystemResetWarning,0829.8,4.99,000.00,030.4,029.5,000.0,038.6,032.0,034.9,-000.4,0018.87,0011.81,0010.98
2024-06-10 15:56:00,SystemResetWarning,0829.8,5.00,000.00,030.1,027.6,000.0,038.7,031.0,035.5,-000.4,0019.29,0011.82,0010.99
2024-06-10 15:57:00,SystemResetWarning,0829.7,5.01,000.00,029.8,026.5,000.0,038.7,030.5,035.4,-000.5,0019.22,0011.78,0010.94
2024-06-10 15:58:00,SystemResetWarning,0829.7,5.01,000.00,029.6,026.6,000.0,038.6,030.4,035.8,-000.6,0019.43,0011.78,0010.90
2024-06-10 15:59:00,SystemResetWarning,0829.7,5.00,000.00,029.5,027.0,000.0,038.4,030.6,036.0,-000.9,0019.37,0011.72,0010.85
